Tracking 19170 objects as of 23-May-2018
HD Live streaming from Space Station
objects crossing your sky now

EKRAN 20

Track EKRAN 20 now!
EKRAN 20 is classified as:


NORAD ID: 22210
Int'l Code: 1992-074A
Perigee: 35,781.9 km
Apogee: 35,792.6 km
Inclination: 15.0 °
Period: 1,435.8 minutes
Semi major axis: 42158 km
RCS: 6.3095 m2 (large)
Launch date: October 30, 1992
Source: Commonwealth of Independent States (former USSR) (CIS)
Launch site: TYURATAM MISSILE AND SPACE COMPLEX (TTMTR)
aabbcc
Your satellite tracking list
Your tracking list is empty




NASA's NSSDC Master Catalog

Two Line Element Set (TLE):
1 22210U 92074A   18143.06924316 -.00000324  00000-0  00000+0 0  9996
2 22210  14.9639   8.9915 0001277 104.6146 249.3520  1.00294922 93626
Source of the keplerian elements: AFSPC